{"data":{"norad_id":62225,"epoch":"2026-09-21T06:38:44.687904Z","epoch_age_seconds":111091,"freshness":"FRESH","line1":"1 62225U 24231H   26264.27690611  .00117163  00000+0  95599-3 0  9999","line2":"2 62225  53.1569 216.8864 0000759  84.4259 275.6846 15.69768969104139","mean_motion":15.69768969,"eccentricity":7.59e-5,"inclination_deg":53.1569,"raan_deg":216.8864,"arg_perigee_deg":84.4259,"mean_anomaly_deg":275.6846,"bstar":0.00095599,"rev_number":10413,"period_min":91.733244091156,"perigee_km":359.04661794528,"apogee_km":360.06940004765,"semimajor_km":6737.6950089965,"source":"CELESTRAK","updated_at":"2026-09-22T09:00:49.562726Z"}}